Time,TemperatureF,DewpointF,PressureIn,WindDirection,WindDirectionDegrees,WindSpeedMPH,WindSpeedGustMPH,Humidity,HourlyPrecipIn,Conditions,Clouds,dailyrainin,SolarRadiationWatts/m^2,SoftwareType,DateUTC
2013-02-17 00:00:00,46.2,40.4,30.01,North,9,1.0,4.0,80,0.00,,,0.00,0.0,WUHU216DAVISVP2,2013-02-17 08:00:00,
2013-02-17 00:05:00,46.4,40.6,30.01,North,9,0.0,3.0,80,0.00,,,0.00,0.0,WUHU216DAVISVP2,2013-02-17 08:05:00,
2013-02-17 00:10:00,46.5,40.4,30.01,North,9,2.0,3.0,79,0.00,,,0.00,0.0,WUHU216DAVISVP2,2013-02-17 08:10:00,
2013-02-17 00:15:00,46.6,40.5,30.01,North,9,2.0,3.0,79,0.00,,,0.00,0.0,WUHU216DAVISVP2,2013-02-17 08:15:00,
2013-02-17 00:20:00,46.6,40.5,30.01,North,9,0.0,3.0,79,0.00,,,0.00,0.0,WUHU216DAVISVP2,2013-02-17 08:20:00,
2013-02-17 00:25:00,46.5,40.4,30.01,North,9,2.0,3.0,79,0.00,,,0.00,0.0,WUHU216DAVISVP2,2013-02-17 08:25:00,
2013-02-17 00:30:00,46.5,40.4,30.01,North,9,2.0,3.0,79,0.00,,,0.00,0.0,WUHU216DAVISVP2,2013-02-17 08:30:00,
2013-02-17 00:35:00,46.9,40.4,30.01,NE,52,5.0,5.0,78,0.00,,,0.00,0.0,WUHU216DAVISVP2,2013-02-17 08:35:00,
2013-02-17 00:40:00,46.9,40.4,30.01,SE,137,3.0,5.0,78,0.00,,,0.00,0.0,WUHU216DAVISVP2,2013-02-17 08:40:00,
2013-02-17 00:45:00,46.9,40.4,30.01,SE,137,1.0,5.0,78,0.00,,,0.00,0.0,WUHU216DAVISVP2,2013-02-17 08:45:00,
2013-02-17 00:50:00,46.9,40.4,30.00,SE,137,0.0,5.0,78,0.00,,,0.00,0.0,WUHU216DAVISVP2,2013-02-17 08:50:00,
2013-02-17 00:55:00,46.8,40.3,30.01,SE,137,0.0,4.0,78,0.00,,,0.00,0.0,WUHU216DAVISVP2,2013-02-17 08:55:00,
2013-02-17 01:00:00,46.9,40.4,30.01,SE,137,0.0,4.0,78,0.00,,,0.00,0.0,WUHU216DAVISVP2,2013-02-17 09:00:00,
2013-02-17 01:05:00,46.7,40.2,30.01,SE,137,0.0,2.0,78,0.00,,,0.00,0.0,WUHU216DAVISVP2,2013-02-17 09:05:00,
2013-02-17 01:10:00,46.4,39.9,30.01,SE,137,0.0,0.0,78,0.00,,,0.00,0.0,WUHU216DAVISVP2,2013-02-17 09:10:00,
2013-02-17 01:15:00,46.2,39.7,30.01,SE,137,2.0,2.0,78,0.00,,,0.00,0.0,WUHU216DAVISVP2,2013-02-17 09:15:00,
2013-02-17 01:20:00,46.3,39.9,30.01,SE,137,1.0,3.0,78,0.00,,,0.00,0.0,WUHU216DAVISVP2,2013-02-17 09:20:00,
2013-02-17 01:25:00,46.4,40.0,30.01,SE,137,2.0,3.0,78,0.00,,,0.00,0.0,WUHU216DAVISVP2,2013-02-17 09:25:00,
2013-02-17 01:30:00,46.5,39.7,30.01,SE,137,0.0,3.0,77,0.00,,,0.00,0.0,WUHU216DAVISVP2,2013-02-17 09:30:00,
2013-02-17 01:35:00,46.2,39.4,30.01,West,269,5.0,5.0,77,0.00,,,0.00,0.0,WUHU216DAVISVP2,2013-02-17 09:35:00,
2013-02-17 01:40:00,45.8,39.7,30.02,West,264,4.0,6.0,79,0.00,,,0.00,0.0,WUHU216DAVISVP2,2013-02-17 09:40:00,
2013-02-17 01:45:00,45.6,39.8,30.01,West,263,2.0,6.0,80,0.00,,,0.00,0.0,WUHU216DAVISVP2,2013-02-17 09:45:00,
2013-02-17 01:50:00,45.7,39.9,30.01,West,263,2.0,6.0,80,0.00,,,0.00,0.0,WUHU216DAVISVP2,2013-02-17 09:50:00,
2013-02-17 01:55:00,45.7,39.9,30.01,West,263,0.0,6.0,80,0.00,,,0.00,0.0,WUHU216DAVISVP2,2013-02-17 09:55:00,
2013-02-17 02:00:00,45.5,39.7,30.01,West,263,0.0,5.0,80,0.00,,,0.00,0.0,WUHU216DAVISVP2,2013-02-17 10:00:00,
2013-02-17 02:05:00,45.1,39.3,30.01,West,263,0.0,3.0,80,0.00,,,0.00,0.0,WUHU216DAVISVP2,2013-02-17 10:05:00,
2013-02-17 02:10:00,44.6,39.1,30.00,West,263,0.0,2.0,81,0.00,,,0.00,0.0,WUHU216DAVISVP2,2013-02-17 10:10:00,
2013-02-17 02:15:00,44.2,39.1,30.00,West,263,0.0,0.0,82,0.00,,,0.00,0.0,WUHU216DAVISVP2,2013-02-17 10:15:00,
2013-02-17 02:20:00,43.5,38.7,30.00,West,263,0.0,1.0,83,0.00,,,0.00,0.0,WUHU216DAVISVP2,2013-02-17 10:20:00,
2013-02-17 02:25:00,43.1,38.6,30.00,West,263,0.0,1.0,84,0.00,,,0.00,0.0,WUHU216DAVISVP2,2013-02-17 10:25:00,
2013-02-17 02:30:00,42.9,38.7,29.99,West,263,0.0,1.0,85,0.00,,,0.00,0.0,WUHU216DAVISVP2,2013-02-17 10:30:00,
2013-02-17 02:35:00,43.0,38.8,29.99,West,263,0.0,1.0,85,0.00,,,0.00,0.0,WUHU216DAVISVP2,2013-02-17 10:35:00,
2013-02-17 02:40:00,43.3,38.8,29.99,West,263,0.0,1.0,84,0.00,,,0.00,0.0,WUHU216DAVISVP2,2013-02-17 10:40:00,
2013-02-17 02:45:00,43.1,38.6,29.98,West,263,0.0,1.0,84,0.00,,,0.00,0.0,WUHU216DAVISVP2,2013-02-17 10:45:00,
2013-02-17 02:50:00,43.3,38.8,29.98,West,263,0.0,0.0,84,0.00,,,0.00,0.0,WUHU216DAVISVP2,2013-02-17 10:50:00,
2013-02-17 02:55:00,43.7,38.9,29.98,West,263,0.0,0.0,83,0.00,,,0.00,0.0,WUHU216DAVISVP2,2013-02-17 10:55:00,
2013-02-17 03:00:00,44.2,39.1,29.98,West,260,0.0,0.0,82,0.00,,,0.00,0.0,WUHU216DAVISVP2,2013-02-17 11:00:00,
2013-02-17 03:05:00,44.5,38.7,29.98,West,260,0.0,0.0,80,0.00,,,0.00,0.0,WUHU216DAVISVP2,2013-02-17 11:05:00,
2013-02-17 03:10:00,44.3,38.5,29.98,West,260,3.0,4.0,80,0.00,,,0.00,0.0,WUHU216DAVISVP2,2013-02-17 11:10:00,
2013-02-17 03:15:00,44.0,38.6,29.98,West,260,0.0,4.0,81,0.00,,,0.00,0.0,WUHU216DAVISVP2,2013-02-17 11:15:00,
2013-02-17 03:20:00,44.0,38.6,29.98,West,260,0.0,4.0,81,0.00,,,0.00,0.0,WUHU216DAVISVP2,2013-02-17 11:20:00,
2013-02-17 03:25:00,43.8,38.7,29.98,West,260,0.0,4.0,82,0.00,,,0.00,0.0,WUHU216DAVISVP2,2013-02-17 11:25:00,
2013-02-17 03:30:00,43.7,38.6,29.97,West,260,0.0,2.0,82,0.00,,,0.00,0.0,WUHU216DAVISVP2,2013-02-17 11:30:00,
2013-02-17 03:35:00,43.6,38.5,29.97,West,260,0.0,2.0,82,0.00,,,0.00,0.0,WUHU216DAVISVP2,2013-02-17 11:35:00,
2013-02-17 03:40:00,43.6,38.8,29.97,West,260,0.0,2.0,83,0.00,,,0.00,0.0,WUHU216DAVISVP2,2013-02-17 11:40:00,
2013-02-17 03:45:00,43.2,37.8,29.97,West,260,0.0,2.0,81,0.00,,,0.00,0.0,WUHU216DAVISVP2,2013-02-17 11:45:00,
2013-02-17 03:50:00,42.7,37.9,29.97,West,260,2.0,2.0,83,0.00,,,0.00,0.0,WUHU216DAVISVP2,2013-02-17 11:50:00,
2013-02-17 03:55:00,42.9,38.4,29.97,West,260,2.0,3.0,84,0.00,,,0.00,0.0,WUHU216DAVISVP2,2013-02-17 11:55:00,
2013-02-17 04:00:00,42.9,38.1,29.97,West,260,0.0,3.0,83,0.00,,,0.00,0.0,WUHU216DAVISVP2,2013-02-17 12:00:00,
2013-02-17 04:06:00,42.7,37.9,29.96,West,260,0.0,3.0,83,0.00,,,0.00,0.0,WUHU216DAVISVP2,2013-02-17 12:06:00,
2013-02-17 04:11:00,42.6,38.1,29.96,West,260,0.0,3.0,84,0.00,,,0.00,0.0,WUHU216DAVISVP2,2013-02-17 12:11:00,
2013-02-17 04:16:00,42.7,38.2,29.97,West,260,0.0,1.0,84,0.00,,,0.00,0.0,WUHU216DAVISVP2,2013-02-17 12:16:00,
2013-02-17 04:21:00,42.7,38.2,29.97,West,260,2.0,3.0,84,0.00,,,0.00,0.0,WUHU216DAVISVP2,2013-02-17 12:21:00,
2013-02-17 04:26:00,42.5,38.0,29.97,West,260,1.0,3.0,84,0.00,,,0.00,0.0,WUHU216DAVISVP2,2013-02-17 12:26:00,
2013-02-17 04:31:00,42.5,38.0,29.97,West,260,0.0,3.0,84,0.00,,,0.00,0.0,WUHU216DAVISVP2,2013-02-17 12:31:00,
2013-02-17 04:36:00,42.0,37.5,29.96,West,260,1.0,3.0,84,0.00,,,0.00,0.0,WUHU216DAVISVP2,2013-02-17 12:36:00,
2013-02-17 04:41:00,41.6,37.1,29.97,West,260,0.0,2.0,84,0.00,,,0.00,0.0,WUHU216DAVISVP2,2013-02-17 12:41:00,
2013-02-17 04:46:00,41.5,37.3,29.97,West,260,0.0,2.0,85,0.00,,,0.00,0.0,WUHU216DAVISVP2,2013-02-17 12:46:00,
2013-02-17 04:51:00,41.5,37.3,29.97,West,260,0.0,2.0,85,0.00,,,0.00,0.0,WUHU216DAVISVP2,2013-02-17 12:51:00,
2013-02-17 04:56:00,41.4,37.2,29.97,West,260,0.0,2.0,85,0.00,,,0.00,0.0,WUHU216DAVISVP2,2013-02-17 12:56:00,
2013-02-17 05:01:00,41.0,36.5,29.97,West,260,0.0,0.0,84,0.00,,,0.00,0.0,WUHU216DAVISVP2,2013-02-17 13:01:00,
2013-02-17 05:06:00,40.5,36.0,29.97,West,260,0.0,0.0,84,0.00,,,0.00,0.0,WUHU216DAVISVP2,2013-02-17 13:06:00,
2013-02-17 05:11:00,40.2,36.3,29.98,West,260,0.0,0.0,86,0.00,,,0.00,0.0,WUHU216DAVISVP2,2013-02-17 13:11:00,
2013-02-17 05:16:00,40.1,36.2,29.98,West,260,0.0,0.0,86,0.00,,,0.00,0.0,WUHU216DAVISVP2,2013-02-17 13:16:00,
2013-02-17 05:21:00,40.0,36.4,29.98,West,260,0.0,0.0,87,0.00,,,0.00,0.0,WUHU216DAVISVP2,2013-02-17 13:21:00,
2013-02-17 05:26:00,40.0,36.2,29.98,West,260,0.0,0.0,86,0.00,,,0.00,0.0,WUHU216DAVISVP2,2013-02-17 13:26:00,
2013-02-17 05:31:00,39.6,35.8,29.98,West,260,0.0,1.0,86,0.00,,,0.00,0.0,WUHU216DAVISVP2,2013-02-17 13:31:00,
2013-02-17 05:36:00,39.2,35.4,29.98,West,260,0.0,1.0,86,0.00,,,0.00,0.0,WUHU216DAVISVP2,2013-02-17 13:36:00,
2013-02-17 05:41:00,38.8,35.6,29.97,West,260,0.0,1.0,88,0.00,,,0.00,0.0,WUHU216DAVISVP2,2013-02-17 13:41:00,
2013-02-17 05:46:00,38.6,35.3,29.98,West,260,0.0,1.0,88,0.00,,,0.00,0.0,WUHU216DAVISVP2,2013-02-17 13:46:00,
2013-02-17 05:51:00,38.2,34.9,29.97,West,260,0.0,1.0,88,0.00,,,0.00,0.0,WUHU216DAVISVP2,2013-02-17 13:51:00,
2013-02-17 05:56:00,38.2,34.9,29.97,West,260,0.0,0.0,88,0.00,,,0.00,0.0,WUHU216DAVISVP2,2013-02-17 13:56:00,
2013-02-17 06:01:00,38.2,35.0,29.97,West,260,0.0,0.0,88,0.00,,,0.00,0.0,WUHU216DAVISVP2,2013-02-17 14:01:00,
2013-02-17 06:06:00,38.4,35.2,29.97,West,260,0.0,0.0,88,0.00,,,0.00,0.0,WUHU216DAVISVP2,2013-02-17 14:06:00,
2013-02-17 06:11:00,38.5,34.9,29.98,West,260,0.0,0.0,87,0.00,,,0.00,0.0,WUHU216DAVISVP2,2013-02-17 14:11:00,
2013-02-17 06:16:00,38.1,34.5,29.98,West,260,1.0,2.0,87,0.00,,,0.00,0.0,WUHU216DAVISVP2,2013-02-17 14:16:00,
2013-02-17 06:21:00,37.8,34.5,29.98,West,260,1.0,2.0,88,0.00,,,0.00,0.0,WUHU216DAVISVP2,2013-02-17 14:21:00,
2013-02-17 06:26:00,37.8,34.5,29.98,West,260,0.0,2.0,88,0.00,,,0.00,0.0,WUHU216DAVISVP2,2013-02-17 14:26:00,
2013-02-17 06:31:00,38.3,35.3,29.98,West,260,0.0,2.0,89,0.00,,,0.00,0.0,WUHU216DAVISVP2,2013-02-17 14:31:00,
2013-02-17 06:36:00,38.8,35.6,29.98,West,260,0.0,1.0,88,0.00,,,0.00,0.0,WUHU216DAVISVP2,2013-02-17 14:36:00,
2013-02-17 06:41:00,39.0,35.5,29.98,West,260,0.0,0.0,87,0.00,,,0.00,0.0,WUHU216DAVISVP2,2013-02-17 14:41:00,
2013-02-17 06:46:00,39.3,36.0,29.98,West,260,0.0,0.0,88,0.00,,,0.00,7.0,WUHU216DAVISVP2,2013-02-17 14:46:00,
2013-02-17 06:51:00,39.2,35.7,29.98,West,260,0.0,1.0,87,0.00,,,0.00,9.0,WUHU216DAVISVP2,2013-02-17 14:51:00,
2013-02-17 06:56:00,39.3,35.4,29.98,West,260,3.0,3.0,86,0.00,,,0.00,14.0,WUHU216DAVISVP2,2013-02-17 14:56:00,
2013-02-17 07:01:00,39.7,35.8,29.98,West,260,3.0,3.0,86,0.00,,,0.00,18.0,WUHU216DAVISVP2,2013-02-17 15:01:00,
2013-02-17 07:06:00,40.3,36.1,29.98,SSE,157,2.0,5.0,85,0.00,,,0.00,23.0,WUHU216DAVISVP2,2013-02-17 15:06:00,
2013-02-17 07:11:00,40.7,36.5,29.99,SSE,157,0.0,5.0,85,0.00,,,0.00,32.0,WUHU216DAVISVP2,2013-02-17 15:11:00,
2013-02-17 07:16:00,41.1,36.6,29.99,SSE,154,2.0,5.0,84,0.00,,,0.00,40.0,WUHU216DAVISVP2,2013-02-17 15:16:00,
2013-02-17 07:21:00,41.5,37.0,29.99,SSE,154,2.0,5.0,84,0.00,,,0.00,51.0,WUHU216DAVISVP2,2013-02-17 15:21:00,
2013-02-17 07:26:00,42.0,37.5,29.99,ESE,122,3.0,5.0,84,0.00,,,0.00,62.0,WUHU216DAVISVP2,2013-02-17 15:26:00,
2013-02-17 07:31:00,42.5,37.7,29.99,SE,131,3.0,5.0,83,0.00,,,0.00,72.0,WUHU216DAVISVP2,2013-02-17 15:31:00,
2013-02-17 07:36:00,43.0,38.2,30.00,SE,128,4.0,5.0,83,0.00,,,0.00,84.0,WUHU216DAVISVP2,2013-02-17 15:36:00,
2013-02-17 07:41:00,43.5,38.4,30.00,SE,131,2.0,5.0,82,0.00,,,0.00,100.0,WUHU216DAVISVP2,2013-02-17 15:41:00,
2013-02-17 07:46:00,43.9,38.8,30.00,SE,145,4.0,7.0,82,0.00,,,0.00,116.0,WUHU216DAVISVP2,2013-02-17 15:46:00,
2013-02-17 07:51:00,44.4,39.2,30.00,SE,128,5.0,7.0,82,0.00,,,0.00,132.0,WUHU216DAVISVP2,2013-02-17 15:51:00,
2013-02-17 07:56:00,44.9,39.4,30.00,SE,132,5.0,7.0,81,0.00,,,0.00,149.0,WUHU216DAVISVP2,2013-02-17 15:56:00,
2013-02-17 08:01:00,45.4,39.9,30.00,SE,133,4.0,7.0,81,0.00,,,0.00,167.0,WUHU216DAVISVP2,2013-02-17 16:01:00,
2013-02-17 08:06:00,46.0,40.2,30.00,SSE,159,1.0,7.0,80,0.00,,,0.00,183.0,WUHU216DAVISVP2,2013-02-17 16:06:00,
2013-02-17 08:11:00,46.3,40.5,30.00,SSE,150,2.0,7.0,80,0.00,,,0.00,202.0,WUHU216DAVISVP2,2013-02-17 16:11:00,
2013-02-17 08:16:00,46.8,41.0,30.00,SE,138,3.0,7.0,80,0.00,,,0.00,218.0,WUHU216DAVISVP2,2013-02-17 16:16:00,
2013-02-17 08:21:00,47.2,41.0,30.00,SSE,161,2.0,8.0,79,0.00,,,0.00,234.0,WUHU216DAVISVP2,2013-02-17 16:21:00,
2013-02-17 08:26:00,47.7,41.5,30.00,SE,139,4.0,8.0,79,0.00,,,0.00,248.0,WUHU216DAVISVP2,2013-02-17 16:26:00,
2013-02-17 08:31:00,48.4,41.6,30.00,SE,141,8.0,8.0,77,0.00,,,0.00,262.0,WUHU216DAVISVP2,2013-02-17 16:31:00,
2013-02-17 08:36:00,48.8,41.6,30.00,SE,143,4.0,8.0,76,0.00,,,0.00,279.0,WUHU216DAVISVP2,2013-02-17 16:36:00,
2013-02-17 08:41:00,49.2,41.7,30.00,SE,143,4.0,8.0,75,0.00,,,0.00,295.0,WUHU216DAVISVP2,2013-02-17 16:41:00,
2013-02-17 08:46:00,49.8,42.3,30.01,SSE,157,5.0,8.0,75,0.00,,,0.00,308.0,WUHU216DAVISVP2,2013-02-17 16:46:00,
2013-02-17 08:51:00,50.2,42.7,30.01,SSE,157,4.0,8.0,75,0.00,,,0.00,325.0,WUHU216DAVISVP2,2013-02-17 16:51:00,
2013-02-17 08:56:00,50.3,42.8,30.01,SSE,164,5.0,9.0,75,0.00,,,0.00,338.0,WUHU216DAVISVP2,2013-02-17 16:56:00,
2013-02-17 09:01:00,50.6,43.0,30.01,SSE,147,2.0,9.0,75,0.00,,,0.00,352.0,WUHU216DAVISVP2,2013-02-17 17:01:00,
2013-02-17 09:06:00,51.1,43.2,30.01,SSE,150,6.0,9.0,74,0.00,,,0.00,367.0,WUHU216DAVISVP2,2013-02-17 17:06:00,
2013-02-17 09:11:00,51.4,43.1,30.01,South,180,3.0,9.0,73,0.00,,,0.00,381.0,WUHU216DAVISVP2,2013-02-17 17:11:00,
2013-02-17 09:16:00,51.8,43.2,30.01,South,180,4.0,8.0,72,0.00,,,0.00,394.0,WUHU216DAVISVP2,2013-02-17 17:16:00,
2013-02-17 09:21:00,52.4,43.4,30.01,SSE,152,4.0,8.0,71,0.00,,,0.00,408.0,WUHU216DAVISVP2,2013-02-17 17:21:00,
2013-02-17 09:26:00,53.2,43.7,30.01,South,183,5.0,8.0,70,0.00,,,0.00,422.0,WUHU216DAVISVP2,2013-02-17 17:26:00,
2013-02-17 09:31:00,53.7,43.8,30.01,SSE,163,3.0,7.0,69,0.00,,,0.00,436.0,WUHU216DAVISVP2,2013-02-17 17:31:00,
2013-02-17 09:36:00,54.6,44.2,30.01,SSW,194,7.0,10.0,68,0.00,,,0.00,448.0,WUHU216DAVISVP2,2013-02-17 17:36:00,
2013-02-17 09:41:00,55.0,44.2,30.01,SE,143,4.0,10.0,67,0.00,,,0.00,461.0,WUHU216DAVISVP2,2013-02-17 17:41:00,
2013-02-17 09:46:00,55.3,44.9,30.01,SSE,165,1.0,10.0,68,0.00,,,0.00,469.0,WUHU216DAVISVP2,2013-02-17 17:46:00,
2013-02-17 09:51:00,55.7,45.8,30.01,SE,126,4.0,10.0,69,0.00,,,0.00,482.0,WUHU216DAVISVP2,2013-02-17 17:51:00,
2013-02-17 09:56:00,56.6,45.9,30.01,SE,142,3.0,6.0,67,0.00,,,0.00,494.0,WUHU216DAVISVP2,2013-02-17 17:56:00,
2013-02-17 10:01:00,57.0,45.5,30.00,SE,144,1.0,6.0,65,0.00,,,0.00,506.0,WUHU216DAVISVP2,2013-02-17 18:01:00,
2013-02-17 10:06:00,57.3,46.2,30.00,SE,146,3.0,6.0,66,0.00,,,0.00,517.0,WUHU216DAVISVP2,2013-02-17 18:06:00,
2013-02-17 10:11:00,57.6,46.1,30.00,SE,143,4.0,6.0,65,0.00,,,0.00,526.0,WUHU216DAVISVP2,2013-02-17 18:11:00,
2013-02-17 10:16:00,57.9,46.3,30.00,SSE,148,0.0,6.0,65,0.00,,,0.00,538.0,WUHU216DAVISVP2,2013-02-17 18:16:00,
2013-02-17 10:21:00,58.7,46.7,30.00,SSE,148,0.0,6.0,64,0.00,,,0.00,547.0,WUHU216DAVISVP2,2013-02-17 18:21:00,
2013-02-17 10:26:00,59.1,47.1,30.00,SSE,159,2.0,5.0,64,0.00,,,0.00,555.0,WUHU216DAVISVP2,2013-02-17 18:26:00,
2013-02-17 10:31:00,58.7,46.3,30.00,SSE,159,0.0,5.0,63,0.00,,,0.00,564.0,WUHU216DAVISVP2,2013-02-17 18:31:00,
2013-02-17 10:36:00,59.4,47.4,30.00,SW,236,2.0,7.0,64,0.00,,,0.00,573.0,WUHU216DAVISVP2,2013-02-17 18:36:00,
2013-02-17 10:41:00,59.5,47.9,30.00,SSW,212,5.0,7.0,65,0.00,,,0.00,582.0,WUHU216DAVISVP2,2013-02-17 18:41:00,
2013-02-17 10:46:00,59.4,47.8,30.00,SSW,198,3.0,7.0,65,0.00,,,0.00,591.0,WUHU216DAVISVP2,2013-02-17 18:46:00,
2013-02-17 10:51:00,59.6,47.6,29.99,South,189,3.0,7.0,64,0.00,,,0.00,596.0,WUHU216DAVISVP2,2013-02-17 18:51:00,
2013-02-17 10:56:00,59.7,47.2,29.99,SSW,194,0.0,7.0,63,0.00,,,0.00,608.0,WUHU216DAVISVP2,2013-02-17 18:56:00,
2013-02-17 11:01:00,60.3,47.8,29.99,SSW,192,2.0,7.0,63,0.00,,,0.00,610.0,WUHU216DAVISVP2,2013-02-17 19:01:00,
2013-02-17 11:06:00,60.4,47.5,29.99,SSW,194,0.0,7.0,62,0.00,,,0.00,619.0,WUHU216DAVISVP2,2013-02-17 19:06:00,
2013-02-17 11:11:00,60.4,47.5,29.99,SSW,198,1.0,7.0,62,0.00,,,0.00,628.0,WUHU216DAVISVP2,2013-02-17 19:11:00,
2013-02-17 11:16:00,60.9,47.5,29.99,SW,222,4.0,7.0,61,0.00,,,0.00,635.0,WUHU216DAVISVP2,2013-02-17 19:16:00,
2013-02-17 11:21:00,61.1,47.2,29.98,SSW,194,2.0,7.0,60,0.00,,,0.00,633.0,WUHU216DAVISVP2,2013-02-17 19:21:00,
2013-02-17 11:26:00,62.0,47.6,29.98,SSE,163,4.0,7.0,59,0.00,,,0.00,638.0,WUHU216DAVISVP2,2013-02-17 19:26:00,
2013-02-17 11:31:00,62.2,47.4,29.98,South,174,3.0,7.0,58,0.00,,,0.00,650.0,WUHU216DAVISVP2,2013-02-17 19:31:00,
2013-02-17 11:36:00,62.5,48.1,29.98,SSW,206,2.0,7.0,59,0.00,,,0.00,643.0,WUHU216DAVISVP2,2013-02-17 19:36:00,
2013-02-17 11:41:00,62.8,48.8,29.98,SSW,209,3.0,8.0,60,0.00,,,0.00,661.0,WUHU216DAVISVP2,2013-02-17 19:41:00,
2013-02-17 11:46:00,62.8,47.9,29.98,SSW,192,4.0,8.0,58,0.00,,,0.00,656.0,WUHU216DAVISVP2,2013-02-17 19:46:00,
2013-02-17 11:51:00,62.8,47.5,29.98,SW,228,3.0,8.0,57,0.00,,,0.00,663.0,WUHU216DAVISVP2,2013-02-17 19:51:00,
2013-02-17 11:56:00,63.4,47.5,29.97,SSW,196,4.0,8.0,56,0.00,,,0.00,661.0,WUHU216DAVISVP2,2013-02-17 19:56:00,
2013-02-17 12:01:00,63.5,47.1,29.97,SSW,210,2.0,8.0,55,0.00,,,0.00,666.0,WUHU216DAVISVP2,2013-02-17 20:01:00,
2013-02-17 12:06:00,63.7,47.3,29.97,SSW,194,1.0,8.0,55,0.00,,,0.00,673.0,WUHU216DAVISVP2,2013-02-17 20:06:00,
2013-02-17 12:11:00,64.2,46.8,29.96,SW,217,4.0,8.0,53,0.00,,,0.00,670.0,WUHU216DAVISVP2,2013-02-17 20:11:00,
2013-02-17 12:16:00,64.4,46.4,29.96,SSW,194,3.0,7.0,52,0.00,,,0.00,666.0,WUHU216DAVISVP2,2013-02-17 20:16:00,
2013-02-17 12:21:00,64.6,46.6,29.96,WNW,284,2.0,7.0,52,0.00,,,0.00,661.0,WUHU216DAVISVP2,2013-02-17 20:21:00,
2013-02-17 12:26:00,65.5,48.0,29.96,SW,217,3.0,6.0,53,0.00,,,0.00,661.0,WUHU216DAVISVP2,2013-02-17 20:26:00,
2013-02-17 12:31:00,65.5,47.5,29.96,SW,232,6.0,8.0,52,0.00,,,0.00,656.0,WUHU216DAVISVP2,2013-02-17 20:31:00,
2013-02-17 12:36:00,64.8,46.8,29.96,West,259,0.0,8.0,52,0.00,,,0.00,661.0,WUHU216DAVISVP2,2013-02-17 20:36:00,
2013-02-17 12:41:00,65.2,47.7,29.96,WSW,254,6.0,8.0,53,0.00,,,0.00,659.0,WUHU216DAVISVP2,2013-02-17 20:41:00,
2013-02-17 12:46:00,65.2,46.7,29.96,WSW,243,7.0,8.0,51,0.00,,,0.00,657.0,WUHU216DAVISVP2,2013-02-17 20:46:00,
2013-02-17 12:51:00,65.2,46.7,29.95,SW,232,1.0,8.0,51,0.00,,,0.00,647.0,WUHU216DAVISVP2,2013-02-17 20:51:00,
2013-02-17 12:56:00,65.3,46.8,29.95,SW,235,6.0,8.0,51,0.00,,,0.00,654.0,WUHU216DAVISVP2,2013-02-17 20:56:00,
2013-02-17 13:01:00,65.2,47.2,29.95,WSW,255,4.0,8.0,52,0.00,,,0.00,645.0,WUHU216DAVISVP2,2013-02-17 21:01:00,
2013-02-17 13:06:00,65.2,45.0,29.95,WSW,257,5.0,8.0,48,0.00,,,0.00,635.0,WUHU216DAVISVP2,2013-02-17 21:06:00,
2013-02-17 13:11:00,65.0,46.5,29.94,WNW,298,2.0,8.0,51,0.00,,,0.00,643.0,WUHU216DAVISVP2,2013-02-17 21:11:00,
2013-02-17 13:16:00,66.0,47.9,29.94,SW,230,7.0,8.0,52,0.00,,,0.00,633.0,WUHU216DAVISVP2,2013-02-17 21:16:00,
2013-02-17 13:21:00,66.4,47.8,29.94,WSW,240,1.0,8.0,51,0.00,,,0.00,619.0,WUHU216DAVISVP2,2013-02-17 21:21:00,
2013-02-17 13:26:00,66.4,47.8,29.94,NW,315,7.0,9.0,51,0.00,,,0.00,613.0,WUHU216DAVISVP2,2013-02-17 21:26:00,
2013-02-17 13:31:00,66.1,47.5,29.94,WSW,246,4.0,9.0,51,0.00,,,0.00,612.0,WUHU216DAVISVP2,2013-02-17 21:31:00,
2013-02-17 13:36:00,66.0,47.9,29.94,WNW,292,5.0,9.0,52,0.00,,,0.00,598.0,WUHU216DAVISVP2,2013-02-17 21:36:00,
2013-02-17 13:41:00,66.4,47.8,29.94,WNW,294,6.0,9.0,51,0.00,,,0.00,592.0,WUHU216DAVISVP2,2013-02-17 21:41:00,
2013-02-17 13:46:00,66.2,47.6,29.94,WNW,297,7.0,10.0,51,0.00,,,0.00,571.0,WUHU216DAVISVP2,2013-02-17 21:46:00,
2013-02-17 13:51:00,65.6,47.6,29.94,NW,306,1.0,10.0,52,0.00,,,0.00,585.0,WUHU216DAVISVP2,2013-02-17 21:51:00,
2013-02-17 13:56:00,65.7,47.7,29.93,NNW,329,5.0,10.0,52,0.00,,,0.00,577.0,WUHU216DAVISVP2,2013-02-17 21:56:00,
2013-02-17 14:01:00,66.7,47.5,29.93,NW,312,3.0,10.0,50,0.00,,,0.00,566.0,WUHU216DAVISVP2,2013-02-17 22:01:00,
2013-02-17 14:06:00,67.0,47.2,29.93,NW,312,0.0,8.0,49,0.00,,,0.00,547.0,WUHU216DAVISVP2,2013-02-17 22:06:00,
2013-02-17 14:11:00,67.3,46.4,29.93,West,273,6.0,7.0,47,0.00,,,0.00,547.0,WUHU216DAVISVP2,2013-02-17 22:11:00,
2013-02-17 14:16:00,67.0,46.7,29.93,West,264,5.0,8.0,48,0.00,,,0.00,536.0,WUHU216DAVISVP2,2013-02-17 22:16:00,
2013-02-17 14:21:00,66.5,44.5,29.93,WNW,285,1.0,8.0,45,0.00,,,0.00,524.0,WUHU216DAVISVP2,2013-02-17 22:21:00,
2013-02-17 14:26:00,66.6,46.3,29.93,NW,324,6.0,9.0,48,0.00,,,0.00,524.0,WUHU216DAVISVP2,2013-02-17 22:26:00,
2013-02-17 14:31:00,66.5,42.6,29.93,North,360,2.0,9.0,42,0.00,,,0.00,512.0,WUHU216DAVISVP2,2013-02-17 22:31:00,
2013-02-17 14:36:00,66.7,42.1,29.92,NW,304,4.0,9.0,41,0.00,,,0.00,501.0,WUHU216DAVISVP2,2013-02-17 22:36:00,
2013-02-17 14:41:00,67.1,44.4,29.92,NW,321,6.0,9.0,44,0.00,,,0.00,478.0,WUHU216DAVISVP2,2013-02-17 22:41:00,
2013-02-17 14:46:00,67.0,45.5,29.92,NW,316,3.0,9.0,46,0.00,,,0.00,471.0,WUHU216DAVISVP2,2013-02-17 22:46:00,
2013-02-17 14:51:00,67.2,45.7,29.92,NW,321,3.0,7.0,46,0.00,,,0.00,462.0,WUHU216DAVISVP2,2013-02-17 22:51:00,
2013-02-17 14:56:00,67.2,45.1,29.92,West,263,5.0,8.0,45,0.00,,,0.00,443.0,WUHU216DAVISVP2,2013-02-17 22:56:00,
2013-02-17 15:01:00,66.9,46.0,29.92,West,279,5.0,8.0,47,0.00,,,0.00,427.0,WUHU216DAVISVP2,2013-02-17 23:01:00,
2013-02-17 15:07:00,67.0,46.1,29.92,WNW,286,4.0,8.0,47,0.00,,,0.00,415.0,WUHU216DAVISVP2,2013-02-17 23:07:00,
2013-02-17 15:12:00,67.3,46.4,29.92,NW,304,6.0,8.0,47,0.00,,,0.00,404.0,WUHU216DAVISVP2,2013-02-17 23:12:00,
2013-02-17 15:17:00,67.4,46.5,29.92,West,281,1.0,8.0,47,0.00,,,0.00,387.0,WUHU216DAVISVP2,2013-02-17 23:17:00,
2013-02-17 15:22:00,67.9,45.7,29.92,NNW,328,2.0,8.0,45,0.00,,,0.00,371.0,WUHU216DAVISVP2,2013-02-17 23:22:00,
2013-02-17 15:27:00,68.0,47.0,29.92,WNW,284,5.0,8.0,47,0.00,,,0.00,357.0,WUHU216DAVISVP2,2013-02-17 23:27:00,
2013-02-17 15:32:00,68.1,45.9,29.92,NNW,337,3.0,6.0,45,0.00,,,0.00,341.0,WUHU216DAVISVP2,2013-02-17 23:32:00,
2013-02-17 15:37:00,68.5,45.7,29.92,NNE,20,5.0,7.0,44,0.00,,,0.00,327.0,WUHU216DAVISVP2,2013-02-17 23:37:00,
2013-02-17 15:42:00,68.4,45.6,29.92,NW,325,1.0,7.0,44,0.00,,,0.00,308.0,WUHU216DAVISVP2,2013-02-17 23:42:00,
2013-02-17 15:47:00,68.5,45.0,29.92,NNW,329,3.0,7.0,43,0.00,,,0.00,299.0,WUHU216DAVISVP2,2013-02-17 23:47:00,
2013-02-17 15:52:00,68.4,44.3,29.92,NNW,341,0.0,7.0,42,0.00,,,0.00,283.0,WUHU216DAVISVP2,2013-02-17 23:52:00,
2013-02-17 15:57:00,68.2,46.0,29.92,NNE,21,2.0,7.0,45,0.00,,,0.00,264.0,WUHU216DAVISVP2,2013-02-17 23:57:00,
2013-02-17 16:02:00,68.3,45.5,29.92,NNW,336,4.0,7.0,44,0.00,,,0.00,248.0,WUHU216DAVISVP2,2013-02-18 00:02:00,
2013-02-17 16:07:00,68.2,45.4,29.91,NNW,339,5.0,7.0,44,0.00,,,0.00,223.0,WUHU216DAVISVP2,2013-02-18 00:07:00,
2013-02-17 16:12:00,68.1,44.7,29.91,NW,313,2.0,7.0,43,0.00,,,0.00,213.0,WUHU216DAVISVP2,2013-02-18 00:12:00,
2013-02-17 16:17:00,67.7,44.9,29.91,NNW,329,3.0,7.0,44,0.00,,,0.00,192.0,WUHU216DAVISVP2,2013-02-18 00:17:00,
2013-02-17 16:22:00,67.8,45.0,29.91,NW,319,4.0,7.0,44,0.00,,,0.00,172.0,WUHU216DAVISVP2,2013-02-18 00:22:00,
2013-02-17 16:27:00,67.6,44.8,29.92,NW,307,4.0,7.0,44,0.00,,,0.00,155.0,WUHU216DAVISVP2,2013-02-18 00:27:00,
2013-02-17 16:32:00,67.5,45.4,29.91,NW,304,3.0,7.0,45,0.00,,,0.00,137.0,WUHU216DAVISVP2,2013-02-18 00:32:00,
2013-02-17 16:37:00,67.5,45.4,29.91,NW,305,2.0,6.0,45,0.00,,,0.00,121.0,WUHU216DAVISVP2,2013-02-18 00:37:00,
2013-02-17 16:42:00,67.6,44.8,29.92,NNW,344,4.0,6.0,44,0.00,,,0.00,107.0,WUHU216DAVISVP2,2013-02-18 00:42:00,
2013-02-17 16:47:00,67.3,44.6,29.91,WNW,301,4.0,5.0,44,0.00,,,0.00,90.0,WUHU216DAVISVP2,2013-02-18 00:47:00,
2013-02-17 16:52:00,67.3,44.6,29.91,WNW,302,4.0,5.0,44,0.00,,,0.00,77.0,WUHU216DAVISVP2,2013-02-18 00:52:00,
2013-02-17 16:57:00,67.3,44.0,29.91,WNW,302,1.0,5.0,43,0.00,,,0.00,65.0,WUHU216DAVISVP2,2013-02-18 00:57:00,
2013-02-17 17:02:00,67.3,44.6,29.91,WNW,298,2.0,5.0,44,0.00,,,0.00,53.0,WUHU216DAVISVP2,2013-02-18 01:02:00,
2013-02-17 17:07:00,67.2,43.9,29.92,WNW,298,1.0,4.0,43,0.00,,,0.00,42.0,WUHU216DAVISVP2,2013-02-18 01:07:00,
2013-02-17 17:12:00,67.0,44.4,29.91,WNW,298,0.0,4.0,44,0.00,,,0.00,33.0,WUHU216DAVISVP2,2013-02-18 01:12:00,
2013-02-17 17:17:00,66.8,44.2,29.92,WNW,298,1.0,3.0,44,0.00,,,0.00,30.0,WUHU216DAVISVP2,2013-02-18 01:17:00,
2013-02-17 17:22:00,66.6,44.5,29.91,WNW,298,0.0,3.0,45,0.00,,,0.00,23.0,WUHU216DAVISVP2,2013-02-18 01:22:00,
2013-02-17 17:27:00,66.2,44.2,29.91,WNW,298,1.0,3.0,45,0.00,,,0.00,18.0,WUHU216DAVISVP2,2013-02-18 01:27:00,
2013-02-17 17:32:00,65.8,44.4,29.91,WNW,298,1.0,3.0,46,0.00,,,0.00,12.0,WUHU216DAVISVP2,2013-02-18 01:32:00,
2013-02-17 17:37:00,65.4,44.6,29.92,WNW,298,1.0,3.0,47,0.00,,,0.00,7.0,WUHU216DAVISVP2,2013-02-18 01:37:00,
2013-02-17 17:42:00,65.0,44.3,29.92,WNW,298,0.0,2.0,47,0.00,,,0.00,5.0,WUHU216DAVISVP2,2013-02-18 01:42:00,
2013-02-17 17:47:00,64.6,45.0,29.92,WNW,298,0.0,2.0,49,0.00,,,0.00,0.0,WUHU216DAVISVP2,2013-02-18 01:47:00,
2013-02-17 17:52:00,64.2,44.6,29.92,WNW,298,0.0,2.0,49,0.00,,,0.00,0.0,WUHU216DAVISVP2,2013-02-18 01:52:00,
2013-02-17 17:57:00,63.9,44.9,29.92,WNW,298,0.0,2.0,50,0.00,,,0.00,0.0,WUHU216DAVISVP2,2013-02-18 01:57:00,
2013-02-17 18:02:00,63.4,45.5,29.92,WNW,298,1.0,2.0,52,0.00,,,0.00,0.0,WUHU216DAVISVP2,2013-02-18 02:02:00,
2013-02-17 18:07:00,62.9,45.6,29.92,WNW,298,0.0,3.0,53,0.00,,,0.00,0.0,WUHU216DAVISVP2,2013-02-18 02:07:00,
2013-02-17 18:12:00,62.4,45.6,29.92,WNW,298,1.0,3.0,54,0.00,,,0.00,0.0,WUHU216DAVISVP2,2013-02-18 02:12:00,
2013-02-17 18:17:00,62.0,45.7,29.92,WNW,298,1.0,3.0,55,0.00,,,0.00,0.0,WUHU216DAVISVP2,2013-02-18 02:17:00,
2013-02-17 18:23:00,61.6,45.4,29.92,WNW,298,1.0,3.0,55,0.00,,,0.00,0.0,WUHU216DAVISVP2,2013-02-18 02:23:00,
2013-02-17 18:28:00,61.3,45.1,29.92,WNW,298,0.0,3.0,55,0.00,,,0.00,0.0,WUHU216DAVISVP2,2013-02-18 02:28:00,
2013-02-17 18:34:00,61.0,44.3,29.93,WNW,298,0.0,3.0,54,0.00,,,0.00,0.0,WUHU216DAVISVP2,2013-02-18 02:34:00,
2013-02-17 18:39:00,60.7,45.0,29.93,WNW,298,0.0,3.0,56,0.00,,,0.00,0.0,WUHU216DAVISVP2,2013-02-18 02:39:00,
2013-02-17 18:44:00,60.4,44.2,29.93,WNW,298,0.0,3.0,55,0.00,,,0.00,0.0,WUHU216DAVISVP2,2013-02-18 02:44:00,
2013-02-17 18:49:00,60.0,43.8,29.93,WNW,298,1.0,3.0,55,0.00,,,0.00,0.0,WUHU216DAVISVP2,2013-02-18 02:49:00,
2013-02-17 18:55:00,59.7,43.5,29.93,WNW,298,2.0,3.0,55,0.00,,,0.00,0.0,WUHU216DAVISVP2,2013-02-18 02:55:00,
2013-02-17 19:00:00,59.3,43.6,29.93,WNW,298,1.0,3.0,56,0.00,,,0.00,0.0,WUHU216DAVISVP2,2013-02-18 03:00:00,
2013-02-17 19:05:00,59.1,43.4,29.93,WNW,298,2.0,3.0,56,0.00,,,0.00,0.0,WUHU216DAVISVP2,2013-02-18 03:05:00,
2013-02-17 19:10:00,58.9,43.7,29.93,WNW,298,3.0,4.0,57,0.00,,,0.00,0.0,WUHU216DAVISVP2,2013-02-18 03:10:00,
2013-02-17 19:15:00,58.7,43.5,29.93,WNW,298,2.0,4.0,57,0.00,,,0.00,0.0,WUHU216DAVISVP2,2013-02-18 03:15:00,
2013-02-17 19:20:00,58.5,43.3,29.93,WNW,298,1.0,4.0,57,0.00,,,0.00,0.0,WUHU216DAVISVP2,2013-02-18 03:20:00,
2013-02-17 19:25:00,58.2,43.5,29.93,WNW,298,3.0,4.0,58,0.00,,,0.00,0.0,WUHU216DAVISVP2,2013-02-18 03:25:00,
2013-02-17 19:30:00,58.0,43.7,29.93,WNW,298,2.0,4.0,59,0.00,,,0.00,0.0,WUHU216DAVISVP2,2013-02-18 03:30:00,
2013-02-17 19:35:00,57.7,43.5,29.94,WNW,298,0.0,4.0,59,0.00,,,0.00,0.0,WUHU216DAVISVP2,2013-02-18 03:35:00,
2013-02-17 19:40:00,57.4,43.6,29.94,WNW,298,0.0,4.0,60,0.00,,,0.00,0.0,WUHU216DAVISVP2,2013-02-18 03:40:00,
2013-02-17 19:45:00,57.2,43.4,29.94,WNW,298,1.0,3.0,60,0.00,,,0.00,0.0,WUHU216DAVISVP2,2013-02-18 03:45:00,
2013-02-17 19:50:00,57.0,43.7,29.94,WNW,298,0.0,3.0,61,0.00,,,0.00,0.0,WUHU216DAVISVP2,2013-02-18 03:50:00,
2013-02-17 19:55:00,56.8,43.5,29.94,WNW,298,1.0,3.0,61,0.00,,,0.00,0.0,WUHU216DAVISVP2,2013-02-18 03:55:00,
2013-02-17 20:00:00,56.6,43.7,29.94,WNW,298,3.0,3.0,62,0.00,,,0.00,0.0,WUHU216DAVISVP2,2013-02-18 04:00:00,
2013-02-17 20:05:00,56.4,43.5,29.94,WNW,298,0.0,3.0,62,0.00,,,0.00,0.0,WUHU216DAVISVP2,2013-02-18 04:05:00,
2013-02-17 20:10:00,56.0,43.6,29.94,WNW,298,0.0,3.0,63,0.00,,,0.00,0.0,WUHU216DAVISVP2,2013-02-18 04:10:00,
2013-02-17 20:15:00,55.7,43.7,29.94,WNW,298,0.0,3.0,64,0.00,,,0.00,0.0,WUHU216DAVISVP2,2013-02-18 04:15:00,
2013-02-17 20:20:00,55.4,44.0,29.94,WNW,298,0.0,3.0,65,0.00,,,0.00,0.0,WUHU216DAVISVP2,2013-02-18 04:20:00,
2013-02-17 20:25:00,54.6,43.6,29.94,WNW,298,1.0,1.0,66,0.00,,,0.00,0.0,WUHU216DAVISVP2,2013-02-18 04:25:00,
2013-02-17 20:30:00,54.2,43.6,29.94,WNW,298,0.0,1.0,67,0.00,,,0.00,0.0,WUHU216DAVISVP2,2013-02-18 04:30:00,
2013-02-17 20:35:00,54.0,43.4,29.95,WNW,298,0.0,1.0,67,0.00,,,0.00,0.0,WUHU216DAVISVP2,2013-02-18 04:35:00,
2013-02-17 20:40:00,53.4,43.2,29.95,WNW,298,1.0,2.0,68,0.00,,,0.00,0.0,WUHU216DAVISVP2,2013-02-18 04:40:00,
2013-02-17 20:45:00,52.5,43.1,29.95,WNW,298,0.0,2.0,70,0.00,,,0.00,0.0,WUHU216DAVISVP2,2013-02-18 04:45:00,
2013-02-17 20:50:00,51.9,42.9,29.95,WNW,298,0.0,2.0,71,0.00,,,0.00,0.0,WUHU216DAVISVP2,2013-02-18 04:50:00,
2013-02-17 20:55:00,51.7,43.4,29.95,WNW,298,0.0,2.0,73,0.00,,,0.00,0.0,WUHU216DAVISVP2,2013-02-18 04:55:00,
2013-02-17 21:00:00,51.7,43.4,29.95,WNW,298,0.0,0.0,73,0.00,,,0.00,0.0,WUHU216DAVISVP2,2013-02-18 05:00:00,
2013-02-17 21:05:00,51.8,43.2,29.95,WNW,298,0.0,0.0,72,0.00,,,0.00,0.0,WUHU216DAVISVP2,2013-02-18 05:05:00,
2013-02-17 21:10:00,51.8,43.2,29.95,WNW,298,0.0,0.0,72,0.00,,,0.00,0.0,WUHU216DAVISVP2,2013-02-18 05:10:00,
2013-02-17 21:15:00,51.7,43.1,29.96,WNW,298,0.0,0.0,72,0.00,,,0.00,0.0,WUHU216DAVISVP2,2013-02-18 05:15:00,
2013-02-17 21:20:00,51.7,43.4,29.95,WNW,298,0.0,0.0,73,0.00,,,0.00,0.0,WUHU216DAVISVP2,2013-02-18 05:20:00,
2013-02-17 21:25:00,51.5,42.9,29.95,WNW,298,0.0,0.0,72,0.00,,,0.00,0.0,WUHU216DAVISVP2,2013-02-18 05:25:00,
2013-02-17 21:30:00,50.9,42.6,29.96,WNW,298,0.0,2.0,73,0.00,,,0.00,0.0,WUHU216DAVISVP2,2013-02-18 05:30:00,
2013-02-17 21:35:00,50.3,42.8,29.96,WNW,298,0.0,2.0,75,0.00,,,0.00,0.0,WUHU216DAVISVP2,2013-02-18 05:35:00,
2013-02-17 21:40:00,49.5,42.2,29.96,WNW,298,0.0,2.0,76,0.00,,,0.00,0.0,WUHU216DAVISVP2,2013-02-18 05:40:00,
2013-02-17 21:45:00,49.2,42.3,29.96,WNW,298,0.0,2.0,77,0.00,,,0.00,0.0,WUHU216DAVISVP2,2013-02-18 05:45:00,
2013-02-17 21:50:00,49.1,42.5,29.96,WNW,298,0.0,2.0,78,0.00,,,0.00,0.0,WUHU216DAVISVP2,2013-02-18 05:50:00,
2013-02-17 21:55:00,49.2,42.6,29.96,WNW,298,0.0,2.0,78,0.00,,,0.00,0.0,WUHU216DAVISVP2,2013-02-18 05:55:00,
2013-02-17 22:00:00,49.3,42.8,29.96,WNW,298,0.0,2.0,78,0.00,,,0.00,0.0,WUHU216DAVISVP2,2013-02-18 06:00:00,
2013-02-17 22:05:00,49.2,42.4,29.96,WNW,298,0.0,2.0,77,0.00,,,0.00,0.0,WUHU216DAVISVP2,2013-02-18 06:05:00,
2013-02-17 22:10:00,49.1,42.6,29.97,WNW,298,0.0,0.0,78,0.00,,,0.00,0.0,WUHU216DAVISVP2,2013-02-18 06:10:00,
2013-02-17 22:15:00,49.1,42.3,29.97,WNW,298,0.0,0.0,77,0.00,,,0.00,0.0,WUHU216DAVISVP2,2013-02-18 06:15:00,
2013-02-17 22:20:00,49.1,42.3,29.97,WNW,298,0.0,0.0,77,0.00,,,0.00,0.0,WUHU216DAVISVP2,2013-02-18 06:20:00,
2013-02-17 22:25:00,49.2,42.4,29.97,WNW,298,0.0,1.0,77,0.00,,,0.00,0.0,WUHU216DAVISVP2,2013-02-18 06:25:00,
2013-02-17 22:30:00,49.0,41.8,29.97,WNW,298,0.0,1.0,76,0.00,,,0.00,0.0,WUHU216DAVISVP2,2013-02-18 06:30:00,
2013-02-17 22:35:00,48.6,42.1,29.97,WNW,298,0.0,1.0,78,0.00,,,0.00,0.0,WUHU216DAVISVP2,2013-02-18 06:35:00,
2013-02-17 22:40:00,48.5,42.0,29.97,WNW,298,0.0,1.0,78,0.00,,,0.00,0.0,WUHU216DAVISVP2,2013-02-18 06:40:00,
2013-02-17 22:45:00,48.5,42.0,29.97,WNW,298,0.0,1.0,78,0.00,,,0.00,0.0,WUHU216DAVISVP2,2013-02-18 06:45:00,
2013-02-17 22:50:00,48.3,41.4,29.97,WNW,298,0.0,1.0,77,0.00,,,0.00,0.0,WUHU216DAVISVP2,2013-02-18 06:50:00,
2013-02-17 22:55:00,48.1,41.9,29.97,WNW,298,0.0,0.0,79,0.00,,,0.00,0.0,WUHU216DAVISVP2,2013-02-18 06:55:00,
2013-02-17 23:00:00,48.1,41.9,29.97,WNW,298,0.0,0.0,79,0.00,,,0.00,0.0,WUHU216DAVISVP2,2013-02-18 07:00:00,
2013-02-17 23:05:00,47.9,41.7,29.98,WNW,298,0.0,0.0,79,0.00,,,0.00,0.0,WUHU216DAVISVP2,2013-02-18 07:05:00,
2013-02-17 23:10:00,47.6,41.4,29.98,WNW,298,0.0,0.0,79,0.00,,,0.00,0.0,WUHU216DAVISVP2,2013-02-18 07:10:00,
2013-02-17 23:15:00,47.4,41.9,29.98,WNW,298,0.0,0.0,81,0.00,,,0.00,0.0,WUHU216DAVISVP2,2013-02-18 07:15:00,
2013-02-17 23:20:00,47.3,41.8,29.98,WNW,298,0.0,0.0,81,0.00,,,0.00,0.0,WUHU216DAVISVP2,2013-02-18 07:20:00,
2013-02-17 23:25:00,47.3,41.8,29.98,WNW,298,0.0,0.0,81,0.00,,,0.00,0.0,WUHU216DAVISVP2,2013-02-18 07:25:00,
2013-02-17 23:30:00,47.2,41.7,29.98,WNW,298,0.0,0.0,81,0.00,,,0.00,0.0,WUHU216DAVISVP2,2013-02-18 07:30:00,
2013-02-17 23:35:00,47.2,41.1,29.98,WNW,298,0.0,0.0,79,0.00,,,0.00,0.0,WUHU216DAVISVP2,2013-02-18 07:35:00,
2013-02-17 23:40:00,47.0,41.5,29.98,WNW,298,0.0,0.0,81,0.00,,,0.00,0.0,WUHU216DAVISVP2,2013-02-18 07:40:00,
2013-02-17 23:45:00,46.9,41.4,29.98,WNW,298,0.0,0.0,81,0.00,,,0.00,0.0,WUHU216DAVISVP2,2013-02-18 07:45:00,
2013-02-17 23:50:00,46.8,41.3,29.98,WNW,298,0.0,0.0,81,0.00,,,0.00,0.0,WUHU216DAVISVP2,2013-02-18 07:50:00,
2013-02-17 23:55:00,46.6,41.4,29.99,WNW,298,0.0,0.0,82,0.00,,,0.00,0.0,WUHU216DAVISVP2,2013-02-18 07:55:00,